Time,TemperatureF,DewpointF,PressureIn,WindDirection,WindDirectionDegrees,WindSpeedMPH,WindSpeedGustMPH,Humidity,HourlyPrecipIn,Conditions,Clouds,dailyrainin,SolarRadiationWatts/m^2,SoftwareType,DateUTC
2013-09-17 00:24:00,50.0,44.0,-100.00,East,94,6.0,16.0,81,0.00,,,0.00,1.000000,,2013-09-17 04:24:00,
2013-09-17 00:34:00,50.0,44.0,-100.00,East,94,6.0,16.0,81,0.00,,,0.00,1.000000,,2013-09-17 04:34:00,
2013-09-17 00:44:00,50.0,44.0,-100.00,East,94,6.0,16.0,81,0.00,,,0.00,1.000000,,2013-09-17 04:44:00,
2013-09-17 00:54:00,50.0,44.0,-100.00,East,94,6.0,16.0,81,0.00,,,0.00,1.000000,,2013-09-17 04:54:00,
2013-09-17 01:23:00,47.0,41.0,-100.00,NE,39,5.0,15.0,80,0.00,,,0.00,1.000000,,2013-09-17 05:23:00,
2013-09-17 01:34:00,47.0,41.0,-100.00,NE,39,5.0,15.0,80,0.00,,,0.00,1.000000,,2013-09-17 05:34:00,
2013-09-17 01:42:00,47.0,41.0,-100.00,NE,39,5.0,15.0,80,0.00,,,0.00,1.000000,,2013-09-17 05:42:00,
2013-09-17 01:52:00,47.0,41.0,-100.00,NE,39,5.0,15.0,80,0.00,,,0.00,1.000000,,2013-09-17 05:52:00,
2013-09-17 02:22:00,46.0,40.0,-100.00,NNE,22,3.0,11.0,80,0.00,,,0.00,1.000000,,2013-09-17 06:22:00,
2013-09-17 02:32:00,46.0,40.0,-100.00,NNE,22,3.0,11.0,80,0.00,,,0.00,1.000000,,2013-09-17 06:32:00,
2013-09-17 02:42:00,46.0,40.0,-100.00,NNE,22,3.0,11.0,80,0.00,,,0.00,1.000000,,2013-09-17 06:42:00,
2013-09-17 02:52:00,46.0,40.0,-100.00,NNE,22,3.0,11.0,80,0.00,,,0.00,1.000000,,2013-09-17 06:52:00,
2013-09-17 03:23:00,45.0,40.0,-100.00,NNE,26,5.0,12.0,84,0.00,,,0.00,1.000000,,2013-09-17 07:23:00,
2013-09-17 03:32:00,45.0,40.0,-100.00,NNE,26,5.0,12.0,84,0.00,,,0.00,1.000000,,2013-09-17 07:32:00,
2013-09-17 03:43:00,45.0,40.0,-100.00,NNE,26,5.0,12.0,84,0.00,,,0.00,1.000000,,2013-09-17 07:43:00,
2013-09-17 03:52:00,45.0,40.0,-100.00,NNE,26,5.0,12.0,84,0.00,,,0.00,1.000000,,2013-09-17 07:52:00,
2013-09-17 04:22:00,45.0,40.0,-100.00,ENE,58,5.0,12.0,84,0.00,,,0.00,1.000000,,2013-09-17 08:22:00,
2013-09-17 04:32:00,45.0,40.0,-100.00,ENE,58,5.0,12.0,84,0.00,,,0.00,1.000000,,2013-09-17 08:32:00,
2013-09-17 04:42:00,45.0,40.0,-100.00,ENE,58,5.0,12.0,84,0.00,,,0.00,1.000000,,2013-09-17 08:42:00,
2013-09-17 04:52:00,45.0,40.0,-100.00,ENE,58,5.0,12.0,84,0.00,,,0.00,1.000000,,2013-09-17 08:52:00,
2013-09-17 05:22:00,43.0,40.0,-100.00,NNW,341,3.0,15.0,88,0.00,,,0.00,1.000000,,2013-09-17 09:22:00,
2013-09-17 05:33:00,43.0,40.0,-100.00,NNW,341,3.0,15.0,88,0.00,,,0.00,1.000000,,2013-09-17 09:33:00,
2013-09-17 05:43:00,43.0,40.0,-100.00,NNW,341,3.0,15.0,88,0.00,,,0.00,1.000000,,2013-09-17 09:43:00,
2013-09-17 05:53:00,43.0,40.0,-100.00,NNW,341,3.0,15.0,88,0.00,,,0.00,1.000000,,2013-09-17 09:53:00,
2013-09-17 06:23:00,42.0,39.0,-100.00,West,270,1.0,9.0,90,0.00,,,0.00,1.000000,,2013-09-17 10:23:00,
2013-09-17 06:33:00,42.0,39.0,-100.00,West,270,1.0,9.0,90,0.00,,,0.00,1.000000,,2013-09-17 10:33:00,
2013-09-17 06:42:00,42.0,39.0,-100.00,West,270,1.0,9.0,90,0.00,,,0.00,1.000000,,2013-09-17 10:42:00,
2013-09-17 06:53:00,42.0,39.0,-100.00,West,270,1.0,9.0,90,0.00,,,0.00,1.000000,,2013-09-17 10:53:00,
2013-09-17 07:22:00,39.0,39.0,-100.00,West,259,1.0,4.0,100,0.00,,,0.00,2.000000,,2013-09-17 11:22:00,
2013-09-17 07:33:00,39.0,39.0,-100.00,West,259,1.0,4.0,100,0.00,,,0.00,2.000000,,2013-09-17 11:33:00,
2013-09-17 07:43:00,39.0,39.0,-100.00,West,259,1.0,4.0,100,0.00,,,0.00,2.000000,,2013-09-17 11:43:00,
2013-09-17 07:52:00,39.0,39.0,-100.00,West,259,1.0,4.0,100,0.00,,,0.00,2.000000,,2013-09-17 11:52:00,
2013-09-17 08:22:00,42.0,42.0,-100.00,WSW,255,1.0,4.0,100,0.00,,,0.00,69.000000,,2013-09-17 12:22:00,
2013-09-17 08:33:00,42.0,42.0,-100.00,WSW,255,1.0,4.0,100,0.00,,,0.00,69.000000,,2013-09-17 12:33:00,
2013-09-17 08:42:00,42.0,42.0,-100.00,WSW,255,1.0,4.0,100,0.00,,,0.00,69.000000,,2013-09-17 12:42:00,
2013-09-17 08:52:00,42.0,42.0,-100.00,WSW,255,1.0,4.0,100,0.00,,,0.00,69.000000,,2013-09-17 12:52:00,
2013-09-17 09:22:00,47.0,42.0,-100.00,NNE,31,5.0,10.0,82,0.00,,,0.00,235.000000,,2013-09-17 13:22:00,
2013-09-17 09:32:00,47.0,42.0,-100.00,NNE,31,5.0,10.0,82,0.00,,,0.00,235.000000,,2013-09-17 13:32:00,
2013-09-17 09:42:00,47.0,42.0,-100.00,NNE,31,5.0,10.0,82,0.00,,,0.00,235.000000,,2013-09-17 13:42:00,
2013-09-17 09:52:00,47.0,42.0,-100.00,NNE,31,5.0,10.0,82,0.00,,,0.00,235.000000,,2013-09-17 13:52:00,
2013-09-17 10:22:00,51.0,43.0,-100.00,NE,50,3.0,8.0,74,0.00,,,0.00,411.000000,,2013-09-17 14:22:00,
2013-09-17 10:32:00,51.0,43.0,-100.00,NE,50,3.0,8.0,74,0.00,,,0.00,411.000000,,2013-09-17 14:32:00,
2013-09-17 10:42:00,51.0,43.0,-100.00,NE,50,3.0,8.0,74,0.00,,,0.00,411.000000,,2013-09-17 14:42:00,
2013-09-17 10:52:00,51.0,43.0,-100.00,NE,50,3.0,8.0,74,0.00,,,0.00,411.000000,,2013-09-17 14:52:00,
2013-09-17 11:22:00,54.0,43.0,-100.00,NE,43,4.0,9.0,65,0.00,,,0.00,568.000000,,2013-09-17 15:22:00,
2013-09-17 11:34:00,54.0,43.0,-100.00,NE,43,4.0,9.0,65,0.00,,,0.00,568.000000,,2013-09-17 15:34:00,
2013-09-17 11:44:00,54.0,43.0,-100.00,NE,43,4.0,9.0,65,0.00,,,0.00,568.000000,,2013-09-17 15:44:00,
2013-09-17 11:53:00,54.0,43.0,-100.00,NE,43,4.0,9.0,65,0.00,,,0.00,568.000000,,2013-09-17 15:53:00,
2013-09-17 12:23:00,58.0,43.0,-100.00,NE,50,3.0,10.0,58,0.00,,,0.00,687.000000,,2013-09-17 16:23:00,
2013-09-17 12:32:00,58.0,43.0,-100.00,NE,50,3.0,10.0,58,0.00,,,0.00,687.000000,,2013-09-17 16:32:00,
2013-09-17 12:42:00,58.0,43.0,-100.00,NE,50,3.0,10.0,58,0.00,,,0.00,687.000000,,2013-09-17 16:42:00,
2013-09-17 12:54:00,58.0,43.0,-100.00,NE,50,3.0,10.0,58,0.00,,,0.00,687.000000,,2013-09-17 16:54:00,
2013-09-17 13:24:00,61.0,41.0,-100.00,NNW,338,4.0,9.0,48,0.00,,,0.00,760.000000,,2013-09-17 17:24:00,
2013-09-17 13:34:00,61.0,41.0,-100.00,NNW,338,4.0,9.0,48,0.00,,,0.00,760.000000,,2013-09-17 17:34:00,
2013-09-17 13:43:00,61.0,41.0,-100.00,NNW,338,4.0,9.0,48,0.00,,,0.00,760.000000,,2013-09-17 17:43:00,
2013-09-17 13:53:00,61.0,41.0,-100.00,NNW,338,4.0,9.0,48,0.00,,,0.00,760.000000,,2013-09-17 17:53:00,
2013-09-17 14:22:00,63.0,41.0,-100.00,SW,223,3.0,10.0,45,0.00,,,0.00,774.000000,,2013-09-17 18:22:00,
2013-09-17 14:32:00,63.0,41.0,-100.00,SW,223,3.0,10.0,45,0.00,,,0.00,774.000000,,2013-09-17 18:32:00,
2013-09-17 14:42:00,63.0,41.0,-100.00,SW,223,3.0,10.0,45,0.00,,,0.00,774.000000,,2013-09-17 18:42:00,
2013-09-17 14:52:00,63.0,41.0,-100.00,SW,223,3.0,10.0,45,0.00,,,0.00,774.000000,,2013-09-17 18:52:00,
2013-09-17 15:22:00,65.0,43.0,-100.00,East,85,4.0,8.0,44,0.00,,,0.00,730.000000,,2013-09-17 19:22:00,
2013-09-17 15:32:00,65.0,43.0,-100.00,East,85,4.0,8.0,44,0.00,,,0.00,730.000000,,2013-09-17 19:32:00,
2013-09-17 15:42:00,65.0,43.0,-100.00,East,85,4.0,8.0,44,0.00,,,0.00,730.000000,,2013-09-17 19:42:00,
2013-09-17 15:52:00,65.0,43.0,-100.00,East,85,4.0,8.0,44,0.00,,,0.00,730.000000,,2013-09-17 19:52:00,
2013-09-17 16:22:00,66.0,42.0,-100.00,West,278,4.0,9.0,42,0.00,,,0.00,632.000000,,2013-09-17 20:22:00,
2013-09-17 16:32:00,66.0,42.0,-100.00,West,278,4.0,9.0,42,0.00,,,0.00,632.000000,,2013-09-17 20:32:00,
2013-09-17 16:42:00,66.0,42.0,-100.00,West,278,4.0,9.0,42,0.00,,,0.00,632.000000,,2013-09-17 20:42:00,
2013-09-17 16:52:00,66.0,42.0,-100.00,West,278,4.0,9.0,42,0.00,,,0.00,632.000000,,2013-09-17 20:52:00,
2013-09-17 17:22:00,65.0,43.0,-100.00,NE,34,2.0,7.0,45,0.00,,,0.00,489.000000,,2013-09-17 21:22:00,
2013-09-17 17:34:00,65.0,43.0,-100.00,NE,34,2.0,7.0,45,0.00,,,0.00,489.000000,,2013-09-17 21:34:00,
2013-09-17 17:44:00,65.0,43.0,-100.00,NE,34,2.0,7.0,45,0.00,,,0.00,489.000000,,2013-09-17 21:44:00,
2013-09-17 17:54:00,65.0,43.0,-100.00,NE,34,2.0,7.0,45,0.00,,,0.00,489.000000,,2013-09-17 21:54:00,
2013-09-17 18:43:00,61.0,49.0,-100.00,SSW,205,2.0,7.0,64,0.00,,,0.00,314.000000,,2013-09-17 22:43:00,
2013-09-17 18:53:00,61.0,49.0,-100.00,SSW,205,2.0,7.0,64,0.00,,,0.00,314.000000,,2013-09-17 22:53:00,
2013-09-17 20:52:00,51.0,49.0,-100.00,South,181,2.0,3.0,93,0.00,,,0.00,3.000000,,2013-09-18 00:52:00,
2013-09-17 21:22:00,51.0,51.0,-100.00,East,99,4.0,6.0,100,0.00,,,0.00,1.000000,,2013-09-18 01:22:00,
2013-09-17 21:32:00,51.0,51.0,-100.00,East,99,4.0,6.0,100,0.00,,,0.00,1.000000,,2013-09-18 01:32:00,
2013-09-17 21:42:00,51.0,51.0,-100.00,East,99,4.0,6.0,100,0.00,,,0.00,1.000000,,2013-09-18 01:42:00,
2013-09-17 21:52:00,51.0,51.0,-100.00,East,99,4.0,6.0,100,0.00,,,0.00,1.000000,,2013-09-18 01:52:00,
2013-09-17 22:22:00,51.0,51.0,-100.00,East,98,6.0,7.0,100,0.00,,,0.00,1.000000,,2013-09-18 02:22:00,
2013-09-17 22:32:00,51.0,51.0,-100.00,East,98,6.0,7.0,100,0.00,,,0.00,1.000000,,2013-09-18 02:32:00,
2013-09-17 22:43:00,51.0,51.0,-100.00,East,98,6.0,7.0,100,0.00,,,0.00,1.000000,,2013-09-18 02:43:00,
2013-09-17 22:52:00,51.0,51.0,-100.00,East,98,6.0,7.0,100,0.00,,,0.00,1.000000,,2013-09-18 02:52:00,
2013-09-17 23:23:00,48.0,48.0,-100.00,East,94,5.0,8.0,100,0.00,,,0.00,1.000000,,2013-09-18 03:23:00,
2013-09-17 23:35:00,48.0,48.0,-100.00,East,94,5.0,8.0,100,0.00,,,0.00,1.000000,,2013-09-18 03:35:00,
2013-09-17 23:44:00,48.0,48.0,-100.00,East,94,5.0,8.0,100,0.00,,,0.00,1.000000,,2013-09-18 03:44:00,
2013-09-17 23:54:00,48.0,48.0,-100.00,East,94,5.0,8.0,100,0.00,,,0.00,1.000000,,2013-09-18 03:54:00,